sat.trackr.live / text

‹ back to catalog

UNKNOWN

NORAD 82199

UNKNOWN UNKNOWN UNKNOWN

§ Identity

Operator
Country
Launch date
Launch site
Launch vehicle
Mass (kg)
RCS (m²)

External: N2YO · Heavens-Above

§ Orbital elements

Epoch: 2026-09-17T15:11:13.803360Z

Period
103.89 min
Inclination
82.9689°
Eccentricity
0.0035758
Mean motion
13.86044804 rev/d
Perigee alt
916.3 km
Apogee alt
968.7 km
Semi-major
7,320.7 km
B*
2.9019e-4
RAAN
24.1508°
Arg perigee
324.5577°
Mean anomaly
48.7169°
Rev number
64,832

§ Raw data

UNKNOWN1 82199U          26260.63279865  .00000351  00000+0  29019-3 0  99932 82199  82.9689  24.1508 0035758 324.5577  48.7169 13.86044804648320

JSON: /api/v1/satellites/82199 · /tle

For live sub-satellite position, see the globe view (requires WebGL).

§ Visibility from observer

Set your observer location to see the next 7 days of passes ≥ 10°. The values pass through the URL so the page stays shareable.

No JS? Fill the form by hand. The geolocation button needs JavaScript.